This is the latest recevied weather packets stored in our database for station/object N8WJW. If no packets are shown the sender has not sent any weather packets the latest 10 day(s).
| Time | Temp. | Humidity | Pressure | Rain* | Wind** | Luminosity | Snow |
|---|---|---|---|---|---|---|---|
| 1777565754 | 8.33° C | 77% | 1015.2 hPa | 0 mm | - | 299 W/m² | - |
| 1777565451 | 8.33° C | 77% | 1015.1 hPa | 0 mm | - | 338 W/m² | - |
| 1777565147 | 8.33° C | 77% | 1015.2 hPa | 0 mm | - | 338 W/m² | - |
| 1777564844 | 8.89° C | 78% | 1015.3 hPa | 0 mm | - | 274 W/m² | - |
| 1777564538 | 7.78° C | 80% | 1015.2 hPa | 0 mm | - | 784 W/m² | - |
| 1777564234 | 7.22° C | 80% | 1015.2 hPa | 0 mm | - | 425 W/m² | - |
| 1777563930 | 7.78° C | 80% | 1015.1 hPa | 0 mm | - | 183 W/m² | - |
| 1777563627 | 7.78° C | 81% | 1015.3 hPa | 0 mm | - | 142 W/m² | - |
| 1777563326 | 7.78° C | 83% | 1015.2 hPa | 0 mm | - | 196 W/m² | - |
| 1777563023 | 7.78° C | 83% | 1015.3 hPa | 0 mm | - | 197 W/m² | - |
| 1777562719 | 7.78° C | 84% | 1015 hPa | 0 mm | - | 153 W/m² | - |
| 1777562418 | 7.22° C | 84% | 1015.1 hPa | 0 mm | - | 172 W/m² | - |
| 1777562115 | 7.78° C | 83% | 1015 hPa | 0 mm | - | 178 W/m² | - |
| 1777561812 | 7.22° C | 83% | 1014.9 hPa | 0 mm | - | 230 W/m² | - |
| 1777561508 | 7.22° C | 84% | 1015.1 hPa | 0 mm | - | 192 W/m² | - |
| 1777561203 | 7.22° C | 83% | 1014.8 hPa | 0 mm | - | 145 W/m² | - |
| 1777560897 | 7.78° C | 86% | 1015 hPa | 0 mm | - | 258 W/m² | - |
| 1777560590 | 7.78° C | 86% | 1014.9 hPa | 0 mm | - | 239 W/m² | - |
| 1777560288 | 7.22° C | 86% | 1014.8 hPa | 0 mm | - | 210 W/m² | - |
| 1777559984 | 6.67° C | 86% | 1014.9 hPa | 0 mm | - | 156 W/m² | - |
| 1777559679 | 6.67° C | 86% | 1014.6 hPa | 0 mm | - | 195 W/m² | - |
| 1777559377 | 6.67° C | 85% | 1014.6 hPa | 0 mm | - | 143 W/m² | - |
| 1777559073 | 6.67° C | 86% | 1014.6 hPa | 0 mm | - | 177 W/m² | - |
| 1777558768 | 6.67° C | 88% | 1014.4 hPa | 0 mm | - | 195 W/m² | - |
| 1777558464 | 6.67° C | 90% | 1014.4 hPa | 0 mm | - | 177 W/m² | - |
* Rain latest hour (hover to see other rain measurements)
** Current wind speed in m/s (hover to see current wind gust speed)